Change the Weather History Date:

Monday, June 9, 2014

  Actual Average Record
Temperature  
Mean Temperature 60 °F -  
Max Temperature 60 °F 78 °F 90 °F (1984)
Min Temperature 59 °F 53 °F 36 °F (1949)
Degree Days  
Heating Degree Days 6    
Growing Degree Days 10 (Base 50)    
Moisture  
Dew Point 59 °F    
Average Humidity 100    
Maximum Humidity 100    
Minimum Humidity 100    
Precipitation  
Precipitation 0.01 in - - ()
Sea Level Pressure  
Sea Level Pressure 29.92 in    
Wind  
Wind Speed 4 mph (WNW)    
Max Wind Speed 7 mph    
Max Gust Speed -    
Visibility 5 miles    
Events      
Averages and records for this station are not official NWS values.
T = Trace of Precipitation, MM = Missing Value Source: NWS Daily Summary

Daily Weather History Graph

Daily Weather History Graph

Search for Another Location

Airport or City:

Trip Planner

Search our weather history database for the weather conditions in past years. The results will help you decide how hot, cold, wet, or windy it might be!

Date:

Astronomy

Jun. 09, 2014 Rise Set
Actual Time 5:45 AM EDT 8:46 PM EDT
Civil Twilight 5:12 AM EDT 9:19 PM EDT
Nautical Twilight 4:30 AM EDT 10:01 PM EDT
Astronomical Twilight 3:41 AM EDT 10:50 PM EDT
Moon 5:04 PM EDT (6/9) 3:12 AM EDT (6/9)
Length of Visible Light 16h 07m
Length of Day
15h 00m
Waxing Gibbous, 85% of the Moon is Illuminated
Jun 9
Waxing Gibbous
Jun 13
Full
Jun 19
Last Quarter
Jun 27
New
Jul 5
First Quarter

Hourly Weather History & Observations

Time (EDT) Temp. Dew Point Humidity Pressure Visibility Wind Dir Wind Speed Gust Speed Precip Events Conditions
12:15 AM 60.8 °F 60.8 °F 100% 29.90 in 10.0 mi NW 6.9 mph - N/A   Overcast
12:35 AM 60.8 °F 60.8 °F 100% 29.91 in 10.0 mi NNW 4.6 mph - N/A   Overcast
12:55 AM 60.8 °F 60.8 °F 100% 29.91 in 10.0 mi NW 4.6 mph - N/A   Overcast
1:15 AM 59.0 °F 59.0 °F 100% 29.91 in 7.0 mi NW 5.8 mph - N/A   Overcast
1:35 AM 59.0 °F 59.0 °F 100% 29.92 in 7.0 mi WNW 4.6 mph - N/A   Overcast
1:55 AM 59.0 °F 59.0 °F 100% 29.91 in 7.0 mi NW 4.6 mph - N/A   Overcast
2:15 AM 59.0 °F 59.0 °F 100% 29.92 in 10.0 mi WNW 6.9 mph - N/A   Overcast
2:35 AM 59.0 °F 59.0 °F 100% 29.92 in 7.0 mi WNW 5.8 mph - N/A   Overcast
2:55 AM 59.0 °F 59.0 °F 100% 29.91 in 7.0 mi NW 3.5 mph - N/A   Overcast
3:15 AM 59.0 °F 59.0 °F 100% 29.92 in 7.0 mi Calm Calm - N/A   Overcast
3:35 AM 59.0 °F 59.0 °F 100% 29.91 in 7.0 mi Calm Calm - N/A   Overcast
3:55 AM 59.0 °F 59.0 °F 100% 29.91 in 4.0 mi Calm Calm - N/A   Overcast
4:15 AM 59.0 °F 59.0 °F 100% 29.91 in 7.0 mi West 3.5 mph - N/A   Overcast
4:35 AM 59.0 °F 59.0 °F 100% 29.92 in 5.0 mi WNW 3.5 mph - N/A   Overcast
4:55 AM 59.0 °F 59.0 °F 100% 29.92 in 4.0 mi Calm Calm - N/A   Overcast
5:15 AM 59.0 °F 59.0 °F 100% 29.91 in 4.0 mi NW 3.5 mph - N/A   Overcast
5:35 AM 59.0 °F 59.0 °F 100% 29.91 in 3.0 mi NW 3.5 mph - N/A   Overcast
5:55 AM 59.0 °F 59.0 °F 100% 29.92 in 1.5 mi Calm Calm - N/A   Overcast
6:15 AM 59.0 °F 59.0 °F 100% 29.92 in 1.5 mi Calm Calm - N/A   Overcast
6:35 AM 59.0 °F 59.0 °F 100% 29.93 in 1.2 mi Calm Calm - N/A   Overcast
6:55 AM 59.0 °F 59.0 °F 100% 29.94 in 1.2 mi Calm Calm - 0.01 in   Overcast
7:15 AM 59.0 °F 59.0 °F 100% 29.94 in 1.2 mi WSW 3.5 mph - N/A   Overcast
7:35 AM 59.0 °F 59.0 °F 100% 29.95 in 1.0 mi SW 3.5 mph - N/A   Overcast
7:55 AM 59.0 °F 59.0 °F 100% 29.95 in 1.0 mi WSW 4.6 mph - N/A   Overcast